Tracking 31027 objects as of 19-Jul-2025
HD Live streaming from Space Station
objects crossing your sky now

CZ-11 R/B

Track CZ-11 R/B now!
10-day predictions


NORAD ID: 43872
Int'l Code: 2018-108B
Perigee: 653.8 km
Apogee: 1,136.1 km
Inclination: 100.4 °
Period: 102.7 minutes
Semi major axis: 7265 km
RCS: Unknown
Launch date: December 21, 2018
Source: People's Republic of China (PRC)
Launch site: Jiuquan Satellite Launch Center, China (JSC)

Note: This is a ROCKET BODY
Your satellite tracking list
Your tracking list is empty




NASA's NSSDC Master Catalog

Two Line Element Set (TLE):
1 43872U 18108B   25199.30817507 -.00000134  00000-0 -30205-4 0  9993
2 43872 100.4100 214.6121 0331933  85.4662 278.4331 14.01729241336126
Source of the keplerian elements: AFSPC